This demonstration page uses our WeatherBlox Daily Observations layout. Learn more.

Left ArrowRight Arrow

Hourly Observations for June 24, 2021

Temp ( °F °C ) Dew Point ( °F °C ) Humidity (%) Winds ( mph kmh ) Pressure ( in mb ) Visibility ( mi km ) Precip ( " mm )
12:51 am 00:51 Clear 81 27.2 54 12.2 39 39 WNW 7 11 29.81 1010 10 16 N/A
1:51 am 01:51 Clear 81 27.2 54 12.2 39 39 NW 8 13 29.79 1009 10 16 N/A
2:51 am 02:51 Clear 77 25 58 14.4 52 52 W 12 19 29.80 1009 10 16 N/A
3:51 am 03:51 Clear 76 24.4 58 14.4 54 54 WNW 6 9 29.80 1009 10 16 N/A
4:51 am 04:51 Clear 75 23.9 58 14.4 55 55 N 3 6 29.81 1010 10 16 N/A
5:51 am 05:51 Cloudy 75 23.9 57 13.9 54 54 N N/A 29.84 1010 10 16 N/A
6:51 am 06:51 Mostly Cloudy 80 26.7 56 13.3 44 44 WNW 7 11 29.85 1011 10 16 N/A
7:51 am 07:51 Partly Cloudy 84 28.9 57 13.9 40 40 WNW 12 19 29.86 1011 10 16 N/A
8:51 am 08:51 Sunny 88 31.1 56 13.3 34 34 W 12 19 29.85 1011 10 16 N/A
9:51 am 09:51 Sunny 90 32.2 56 13.3 32 32 NW 12 19 29.84 1011 10 16 N/A
10:51 am 10:51 Mostly Sunny 93 33.9 56 13.3 29 29 WNW 10 17 29.82 1010 10 16 N/A
11:51 am 11:51 Sunny 95 35 55 12.8 26 26 WNW 8 13 29.80 1009 10 16 N/A
12:51 pm 12:51 Sunny 95 35 54 12.2 25 25 WSW 6 9 29.78 1009 10 16 N/A
1:51 pm 13:51 Mostly Cloudy 98 36.7 53 11.7 22 22 WNW 12 19 29.74 1007 10 16 N/A
2:51 pm 14:51 Mostly Cloudy 99 37.2 52 11.1 21 21 WSW 14 22 29.72 1007 10 16 N/A
3:51 pm 15:51 Mostly Cloudy 99 37.2 51 10.6 20 20 N 9 15 29.70 1006 10 16 N/A
4:51 pm 16:51 Mostly Cloudy 99 37.2 51 10.6 20 20 NW 13 20 29.68 1005 10 16 N/A
5:51 pm 17:51 Cloudy 98 36.7 51 10.6 20 20 WNW 22 35 29.67 1005 10 16 N/A
6:51 pm 18:51 Mostly Cloudy 95 35 51 10.6 23 23 W 15 24 29.68 1005 10 16 N/A
7:51 pm 19:51 Mostly Cloudy 92 33.3 52 11.1 26 26 WNW 15 24 29.69 1006 10 16 N/A
8:51 pm 20:51 Partly Cloudy 90 32.2 53 11.7 28 28 WNW 16 26 29.72 1006 10 16 N/A
9:51 pm 21:51 Mostly Clear 87 30.6 53 11.7 31 31 NW 8 13 29.74 1007 10 16 N/A
10:51 pm 22:51 Partly Cloudy 86 30 53 11.7 32 32 NW 10 17 29.74 1007 10 16 N/A
11:51 pm 23:51 Partly Cloudy 84 28.9 52 11.1 33 33 W 8 13 29.74 1007 10 16 N/A

Powered by AerisWeather